Location: Unspecified
(38.0989°N, 0.6729°W)
Time: 03:13:18
(UTC+02:00)

ISS - Visible Passes

Search period start: 25 May 2017 00:00
Search period end: 04 June 2017 00:00
Orbit: 402 x 409 km, 51.6° (Epoch: 25 May)

Date Brightness Start Highest point End Pass type
(mag) Time Alt. Az. Time Alt. Az. Time Alt. Az.
25 May -1.2 04:19:26 10° NNW 04:22:05 22° NNE 04:24:43 10° E visible
25 May -3.5 05:55:34 10° WNW 05:58:42 43° SW 06:01:49 10° SSE visible
25 May -3.2 22:34:07 10° WSW 22:37:22 58° NW 22:40:37 10° NE visible
26 May -0.3 00:12:51 10° NW 00:14:25 13° NNW 00:16:00 10° N visible
26 May -0.6 03:27:48 10° NNW 03:29:50 15° NNE 03:31:52 10° ENE visible
26 May -3.9 05:03:27 10° NW 05:06:44 88° NE 05:10:00 10° SE visible
26 May -3.9 21:42:04 10° SW 21:45:20 69° SE 21:48:37 10° NE visible
26 May -0.7 23:19:48 10° WNW 23:22:07 18° NNW 23:24:27 10° NNE visible
27 May -0.3 02:36:21 10° N 02:37:30 11° NNE 02:38:38 10° NE visible
27 May -2.7 04:11:30 10° NW 04:14:40 44° NE 04:17:49 10° ESE visible
27 May -2.3 05:48:44 10° W 05:50:54 17° SW 05:53:04 10° S visible
27 May -1.4 22:27:01 10° W 22:29:53 26° NNW 22:32:44 10° NNE visible
28 May -0.7 03:19:40 10° NNW 03:19:57 12° NNW 03:19:57 12° NNW visible
28 May -0.4 23:13:39 10° NW 23:14:52 12° NNW 23:16:05 10° N visible
29 May -0.5 02:27:57 10° NNW 02:28:36 13° N 02:28:36 13° N visible
29 May -0.7 22:20:25 10° WNW 22:22:30 15° NNW 22:24:35 10° NNE visible
30 May -0.5 01:36:22 10° N 01:37:43 13° NNE 01:37:43 13° NNE visible
31 May -0.4 22:14:29 10° NNW 22:15:12 10° NNW 22:15:54 10° N visible
01 Jun -0.6 01:28:01 10° NNW 01:29:01 15° N 01:29:01 15° N visible
02 Jun -0.9 00:36:19 10° NNW 00:38:10 14° NNE 00:38:28 14° NNE visible
02 Jun -0.7 23:44:54 10° N 23:45:44 11° NNE 23:46:35 10° NNE visible
03 Jun -0.7 01:19:51 10° NW 01:20:35 15° NNW 01:20:35 15° NNW visible
